FW7772 Weather Reports


Display with metric or nautical units.
time (UTC)temp
F
wind
direction
speed
MPH
gust
MPH
rain 1hr
in
rain 24hr
in
rain mn
in
humidity
%
barometer
mb
20260507215340 32 314 3.0 5.0 0.00 0.00 0.00 59 1021.1
20260507214815 33 314 3.0 4.0 0.00 0.00 0.00 58 1021.1
20260507213338 33 324 2.0 4.0 0.00 0.00 0.00 58 1021.1
20260507212814 34 310 2.0 3.0 0.00 0.00 0.00 56 1020.8
20260507211338 34 310 3.0 4.0 0.00 0.00 0.00 55 1020.5
20260507210337 35 310 2.0 4.0 0.00 0.00 0.00 55 1020.3
20260507205336 36 317 2.0 4.0 0.00 0.00 0.00 55 1020.2
20260507204819 37 327 2.0 4.0 0.00 0.00 0.00 54 1020.1
20260507203335 37 310 3.0 4.0 0.00 0.00 0.00 52 1020.1
20260507202334 38 310 3.0 4.0 0.00 0.00 0.00 50 1019.9
20260507201334 39 286 2.0 5.0 0.00 0.00 0.00 51 1019.7
20260507200336 40 305 3.0 4.0 0.00 0.00 0.00 47 1019.5
20260507195334 41 310 4.0 7.0 0.00 0.00 0.00 45 1019.5
20260507194334 42 326 3.0 5.0 0.00 0.00 0.00 42 1019.3
20260507193334 44 332 2.0 4.0 0.00 0.00 0.00 40 1019.2
20260507192334 46 314 2.0 3.0 0.00 0.00 0.00 40 1019.1
20260507191334 47 314 2.0 3.0 0.00 0.00 0.00 40 1019.0
20260507190334 49 314 3.0 4.0 0.00 0.00 0.00 35 1018.9
20260507185334 51 316 3.0 4.0 0.00 0.00 0.00 33 1018.8
20260507184334 52 316 2.0 3.0 0.00 0.00 0.00 31 1018.7
20260507183334 53 316 2.0 3.0 0.00 0.00 0.00 30 1018.5
20260507182821 53 316 2.0 4.0 0.00 0.00 0.00 30 1018.5
20260507181334 53 316 3.0 4.0 0.00 0.00 0.00 25 1018.4
20260507180821 53 318 3.0 4.0 0.00 0.00 0.00 24 1018.3
20260507175334 53 310 4.0 5.0 0.00 0.00 0.00 22 1018.1
20260507174334 53 300 4.0 6.0 0.00 0.00 0.00 21 1018.0
20260507173817 54 352 4.0 8.0 0.00 0.00 0.00 21 1017.9
20260507172337 55 317 3.0 7.0 0.00 0.00 0.00 20 1017.8
20260507172249 55 342 4.0 8.0 0.00 0.00 0.00 19 1017.7
20260507170337 55 300 4.0 9.0 0.00 0.00 0.00 20 1017.7
20260507165334 55 351 4.0 9.0 0.00 0.00 0.00 18 1017.6
20260507164331 55 305 5.0 9.0 0.00 0.00 0.00 18 1017.4
20260507163331 55 293 7.0 12.0 0.00 0.00 0.00 19 1017.4
20260507162321 55 268 3.0 9.0 0.00 0.00 0.00 18 1017.3
20260507161319 55 325 6.0 13.0 0.00 0.00 0.00 22 1017.3
20260507160313 53 317 7.0 11.0 0.00 0.00 0.00 21 1017.2
20260507155315 55 282 7.0 13.0 0.00 0.00 0.00 18 1017.2
20260507154314 55 278 8.0 13.0 0.00 0.00 0.00 19 1017.1
20260507153314 56 349 6.0 12.0 0.00 0.00 0.00 17 1017.2
20260507152313 56 337 7.0 12.0 0.00 0.00 0.00 15 1017.1
20260507151313 56 300 3.0 8.0 0.00 0.00 0.00 15 1017.0
20260507150315 56 188 5.0 12.0 0.00 0.00 0.00 15 1016.9
20260507145313 55 226 7.0 13.0 0.00 0.00 0.00 15 1017.0
20260507144801 56 295 8.0 16.0 0.00 0.00 0.00 17 1016.9
20260507143743 56 322 4.0 12.0 0.00 0.00 0.00 16 1016.8
20260507142307 56 247 5.0 12.0 0.00 0.00 0.00 16 1016.8
20260507141747 57 291 5.0 12.0 0.00 0.00 0.00 13 1016.7
20260507140308 55 263 7.0 15.0 0.00 0.00 0.00 15 1016.8
20260507135307 56 270 6.0 16.0 0.00 0.00 0.00 16 1016.7
20260507134744 56 221 5.0 11.0 0.00 0.00 0.00 17 1016.7
20260507133307 56 300 7.0 13.0 0.00 0.00 0.00 19 1016.8
20260507132309 54 235 7.0 15.0 0.00 0.00 0.00 21 1016.7
20260507131745 56 317 5.0 12.0 0.00 0.00 0.00 19 1016.6
20260507130307 53 274 9.0 15.0 0.00 0.00 0.00 20 1016.6
20260507125307 55 293 4.0 13.0 0.00 0.00 0.00 19 1016.5
20260507124307 55 257 7.0 13.0 0.00 0.00 0.00 14 1016.5
20260507123308 55 258 4.0 14.0 0.00 0.00 0.00 18 1016.5
20260507122308 54 345 8.0 14.0 0.00 0.00 0.00 17 1016.4
20260507121307 55 305 9.0 15.0 0.00 0.00 0.00 19 1016.4
20260507120308 57 290 4.0 16.0 0.00 0.00 0.00 19 1016.3
20260507120216 54 83 8.0 18.0 0.00 0.00 0.00 19 1016.5
20260507114304 54 305 9.0 16.0 0.00 0.00 0.00 19 1016.3
20260507114216 55 236 3.0 9.0 0.00 0.00 0.00 21 1016.3
20260507112307 55 212 6.0 11.0 0.00 0.00 0.00 16 1016.3
20260507111744 55 268 6.0 12.0 0.00 0.00 0.00 18 1016.4
20260507110312 54 192 9.0 16.0 0.00 0.00 0.00 16 1016.2
20260507105306 55 271 6.0 21.0 0.00 0.00 0.00 16 1016.0
20260507104303 54 270 5.0 15.0 0.00 0.00 0.00 17 1016.2
20260507103305 53 290 6.0 11.0 0.00 0.00 0.00 18 1016.2
20260507102307 53 327 10.0 15.0 0.00 0.00 0.00 22 1016.0
20260507101303 54 248 5.0 14.0 0.00 0.00 0.00 21 1016.0
20260507100741 54 289 7.0 17.0 0.00 0.00 0.00 21 1015.9
20260507095306 51 300 7.0 15.0 0.00 0.00 0.00 23 1015.9
20260507094303 52 226 3.0 9.0 0.00 0.00 0.00 23 1015.9
20260507093301 53 300 5.0 12.0 0.00 0.00 0.00 20 1015.9
20260507092302 52 316 7.0 14.0 0.00 0.00 0.00 24 1015.9
20260507091301 51 249 6.0 12.0 0.00 0.00 0.00 24 1016.0
20260507090301 50 276 8.0 15.0 0.00 0.00 0.00 25 1016.0
20260507085306 50 357 5.0 12.0 0.00 0.00 0.00 25 1015.9
20260507084302 50 300 8.0 12.0 0.00 0.00 0.00 26 1015.9
20260507083734 50 322 8.0 13.0 0.00 0.00 0.00 30 1015.8
20260507082746 50 289 7.0 13.0 0.00 0.00 0.00 30 1015.7
20260507081303 49 343 3.0 8.0 0.00 0.00 0.00 30 1015.7
20260507080301 49 305 5.0 10.0 0.00 0.00 0.00 32 1015.6
20260507075301 49 210 7.0 12.0 0.00 0.00 0.00 33 1015.4
20260507074751 49 339 4.0 10.0 0.00 0.00 0.00 36 1015.5
20260507073302 48 339 4.0 9.0 0.00 0.00 0.00 38 1015.3
20260507072758 47 21 3.0 7.0 0.00 0.00 0.00 39 1015.3
20260507071303 47 345 4.0 10.0 0.00 0.00 0.00 40 1015.4
20260507070301 46 338 5.0 11.0 0.00 0.00 0.00 42 1015.3
20260507065305 45 337 3.0 6.0 0.00 0.00 0.00 48 1015.2
20260507064302 44 310 4.0 8.0 0.00 0.00 0.00 48 1015.3
20260507063302 41 328 3.0 5.0 0.00 0.00 0.00 54 1015.2
20260507062301 40 314 1.0 4.0 0.00 0.00 0.00 55 1015.1
20260507061302 39 322 3.0 7.0 0.00 0.00 0.00 57 1015.2
20260507060745 38 354 2.0 6.0 0.00 0.00 0.00 59 1015.1
20260507055301 37 327 3.0 4.0 0.00 0.00 0.00 60 1015.1
20260507054743 37 310 3.0 5.0 0.00 0.00 0.00 60 1014.9
20260507053301 36 293 4.0 6.0 0.00 0.00 0.00 61 1014.9
20260507052305 35 300 5.0 8.0 0.00 0.00 0.00 63 1014.9
20260507051301 35 300 6.0 10.0 0.00 0.00 0.00 63 1014.8
20260507050301 34 315 8.0 10.0 0.00 0.00 0.00 64 1014.8
20260507045301 33 321 7.0 11.0 0.00 0.00 0.00 64 1014.8
20260507044301 33 305 5.0 8.0 0.00 0.00 0.00 65 1014.8
20260507043302 32 329 5.0 9.0 0.00 0.00 0.00 66 1014.7
20260507042301 31 310 5.0 9.0 0.00 0.00 0.00 68 1014.6
20260507041301 31 300 5.0 10.0 0.00 0.00 0.00 69 1014.6
20260507040738 30 295 5.0 8.0 0.00 0.00 0.00 71 1014.5
20260507035301 29 300 6.0 10.0 0.00 0.00 0.00 73 1014.4
20260507034301 28 291 4.0 8.0 0.00 0.00 0.00 75 1014.4
20260507033738 27 300 4.0 6.0 0.00 0.00 0.00 76 1014.3
20260507032301 27 279 3.0 5.0 0.00 0.00 0.00 76 1014.2
20260507031301 27 300 3.0 5.0 0.00 0.00 0.00 76 1014.2
20260507030302 27 281 2.0 4.0 0.00 0.00 0.00 76 1014.1
20260507025300 27 287 4.0 8.0 0.00 0.00 0.00 75 1014.2
20260507024300 28 336 4.0 8.0 0.00 0.00 0.00 75 1014.2
20260507023301 28 287 3.0 4.0 0.00 0.00 0.00 75 1014.1
20260507022306 28 329 0.0 2.0 0.00 0.00 0.00 74 1014.1
20260507021301 28 329 2.0 4.0 0.00 0.00 0.00 73 1014.0
20260507020301 28 289 4.0 8.0 0.00 0.00 0.00 73 1013.8
20260507015300 28 300 4.0 6.0 0.00 0.00 0.00 74 1013.9
20260507014300 28 291 4.0 6.0 0.00 0.00 0.00 74 1013.9
20260507013301 28 288 4.0 7.0 0.00 0.00 0.00 75 1013.8